Terminal Aerodrome Forecast
Issued by NWS

Home | Current Version | Previous Version | Text Only | Print | Product List | Glossary On
Versions: 1 2 3 4 5 6 7 8 9 10 11 12 13 14 15 16 17 18 19 20 21 22 23 24 25 26 27 28 29 30 31 32
000
FTPA31 PHFO 290600 AAA
TAFLIH
TAF AMD
PHLI 290617Z 2906/3006 01012KT P6SM OVC045
     FM290800 35008KT P6SM BKN050
     FM291900 04012KT P6SM SCT030 BKN050=

USA.gov is the U.S. government's official web portal to all federal, state and local government web resources and services.